| time (UTC) | temp F | wind direction | speed knots | gust knots | rain 1hr in | rain 24hr in | rain mn in | humidity % | barometer mb |
| 20260506110503 | 73 | 218 | 0.0 | 1.7 | 0.00 | 0.00 | 0.00 | 91 | 1009.3 |
| 20260506110003 | 73 | 218 | 0.0 | 1.7 | 0.00 | 0.00 | 0.00 | 90 | 1009.3 |
| 20260506105503 | 73 | 218 | 0.9 | 1.7 | 0.00 | 0.00 | 0.00 | 91 | 1009.1 |
| 20260506105003 | 73 | 218 | 0.0 | 1.7 | 0.00 | 0.00 | 0.00 | 91 | 1009.1 |
| 20260506104503 | 73 | 228 | 0.0 | 1.7 | 0.00 | 0.00 | 0.00 | 90 | 1009.2 |
| 20260506104003 | 73 | 228 | 0.0 | 1.7 | 0.00 | 0.00 | 0.00 | 91 | 1009.1 |
| 20260506103524 | 73 | 228 | 0.0 | 0.9 | 0.00 | 0.00 | 0.00 | 91 | 1009.0 |
| 20260506103003 | 73 | 229 | 0.0 | 2.6 | 0.00 | 0.00 | 0.00 | 91 | 1008.9 |
| 20260506102503 | 73 | 231 | 0.9 | 2.6 | 0.00 | 0.00 | 0.00 | 90 | 1008.9 |
| 20260506102003 | 73 | 235 | 0.0 | 1.7 | 0.00 | 0.00 | 0.00 | 90 | 1008.9 |
| 20260506101524 | 73 | 236 | 0.9 | 3.5 | 0.00 | 0.00 | 0.00 | 90 | 1009.0 |
| 20260506101003 | 73 | 236 | 0.9 | 3.5 | 0.00 | 0.00 | 0.00 | 90 | 1009.0 |
| 20260506100503 | 73 | 235 | 0.0 | 1.7 | 0.00 | 0.00 | 0.00 | 90 | 1009.0 |
| 20260506100003 | 73 | 229 | 0.9 | 3.5 | 0.00 | 0.00 | 0.00 | 90 | 1008.9 |
| 20260506095503 | 73 | 129 | 0.9 | 3.5 | 0.00 | 0.00 | 0.00 | 90 | 1008.7 |
| 20260506095003 | 73 | 90 | 0.9 | 3.5 | 0.00 | 0.00 | 0.00 | 90 | 1008.7 |
| 20260506094503 | 74 | 64 | 0.9 | 3.5 | 0.00 | 0.00 | 0.00 | 89 | 1008.7 |
| 20260506094003 | 74 | 103 | 0.0 | 2.6 | 0.00 | 0.00 | 0.00 | 89 | 1008.7 |
| 20260506093524 | 74 | 126 | 0.9 | 2.6 | 0.00 | 0.00 | 0.00 | 89 | 1008.6 |
| 20260506093003 | 74 | 229 | 0.0 | 2.6 | 0.00 | 0.00 | 0.00 | 89 | 1008.7 |
| 20260506092503 | 74 | 267 | 0.0 | 1.7 | 0.00 | 0.00 | 0.00 | 89 | 1008.8 |
| 20260506092003 | 74 | 267 | 0.0 | 1.7 | 0.00 | 0.00 | 0.00 | 89 | 1008.9 |
| 20260506091503 | 74 | 267 | 0.9 | 2.6 | 0.00 | 0.00 | 0.00 | 89 | 1008.8 |
| 20260506091003 | 74 | 261 | 0.9 | 3.5 | 0.00 | 0.00 | 0.00 | 89 | 1008.9 |
| 20260506090503 | 74 | 256 | 0.9 | 3.5 | 0.00 | 0.00 | 0.00 | 89 | 1008.9 |
| 20260506090003 | 74 | 250 | 0.0 | 2.6 | 0.00 | 0.00 | 0.00 | 89 | 1008.8 |
| 20260506085503 | 74 | 255 | 0.0 | 2.6 | 0.00 | 0.00 | 0.00 | 89 | 1008.8 |
| 20260506085024 | 73 | 264 | 0.9 | 2.6 | 0.00 | 0.00 | 0.00 | 89 | 1008.8 |
| 20260506084503 | 73 | 270 | 0.9 | 3.5 | 0.00 | 0.00 | 0.00 | 89 | 1008.9 |
| 20260506084003 | 73 | 273 | 0.0 | 3.5 | 0.00 | 0.00 | 0.00 | 89 | 1008.7 |
| 20260506083503 | 74 | 251 | 0.0 | 2.6 | 0.00 | 0.00 | 0.00 | 89 | 1008.6 |
| 20260506083003 | 74 | 215 | 0.0 | 2.6 | 0.00 | 0.00 | 0.00 | 89 | 1008.7 |
| 20260506082503 | 74 | 193 | 0.0 | 1.7 | 0.00 | 0.00 | 0.00 | 89 | 1008.7 |
| 20260506082024 | 74 | 192 | 0.0 | 2.6 | 0.00 | 0.00 | 0.00 | 89 | 1008.7 |
| 20260506081503 | 74 | 215 | 0.9 | 3.5 | 0.00 | 0.00 | 0.00 | 88 | 1008.6 |
| 20260506081003 | 74 | 234 | 0.9 | 3.5 | 0.00 | 0.00 | 0.00 | 88 | 1008.6 |
| 20260506080503 | 74 | 227 | 0.9 | 3.5 | 0.00 | 0.00 | 0.00 | 88 | 1008.7 |
| 20260506073524 | 74 | 218 | 0.9 | 4.3 | 0.00 | 0.00 | 0.00 | 88 | 1008.8 |
| 20260506073003 | 74 | 243 | 1.7 | 4.3 | 0.00 | 0.00 | 0.00 | 87 | 1008.8 |
| 20260506072503 | 74 | 256 | 0.9 | 3.5 | 0.00 | 0.00 | 0.00 | 87 | 1008.9 |
| 20260506072024 | 74 | 242 | 0.9 | 4.3 | 0.00 | 0.00 | 0.00 | 87 | 1008.9 |
| 20260506071503 | 75 | 255 | 1.7 | 4.3 | 0.00 | 0.00 | 0.00 | 87 | 1009.0 |
| 20260506071003 | 75 | 261 | 0.9 | 4.3 | 0.00 | 0.00 | 0.00 | 87 | 1009.0 |
| 20260506070503 | 75 | 261 | 0.9 | 7.0 | 0.00 | 0.00 | 0.00 | 87 | 1008.9 |
| 20260506062503 | 75 | 250 | 2.6 | 7.0 | 0.00 | 0.00 | 0.00 | 86 | 1009.7 |
| 20260506062024 | 75 | 250 | 2.6 | 7.0 | 0.00 | 0.00 | 0.00 | 86 | 1009.6 |
| 20260506061503 | 75 | 253 | 1.7 | 6.1 | 0.00 | 0.00 | 0.00 | 86 | 1009.4 |
| 20260506061003 | 75 | 257 | 1.7 | 5.2 | 0.00 | 0.00 | 0.00 | 86 | 1009.2 |
| 20260506060503 | 75 | 241 | 1.7 | 7.0 | 0.00 | 0.00 | 0.00 | 86 | 1009.3 |
| 20260506051003 | 75 | 248 | 2.6 | 8.7 | 0.00 | 0.00 | 0.00 | 86 | 1008.6 |
| 20260506050503 | 75 | 227 | 1.7 | 7.8 | 0.00 | 0.00 | 0.00 | 86 | 1008.5 |
| 20260506045003 | 75 | 228 | 2.6 | 9.6 | 0.00 | 0.00 | 0.00 | 86 | 1008.6 |
| 20260506044503 | 75 | 255 | 1.7 | 9.6 | 0.00 | 0.00 | 0.00 | 85 | 1008.6 |
| 20260506044003 | 76 | 235 | 2.6 | 9.6 | 0.00 | 0.00 | 0.00 | 85 | 1008.4 |
| 20260506043503 | 76 | 234 | 2.6 | 8.7 | 0.00 | 0.00 | 0.00 | 85 | 1008.4 |
| 20260506043003 | 76 | 244 | 1.7 | 8.7 | 0.00 | 0.00 | 0.00 | 85 | 1008.5 |
| 20260506042503 | 76 | 246 | 0.9 | 6.1 | 0.00 | 0.00 | 0.00 | 85 | 1008.6 |
| 20260506042003 | 76 | 235 | 0.9 | 7.0 | 0.00 | 0.00 | 0.00 | 85 | 1008.8 |
| 20260506041503 | 76 | 226 | 1.7 | 7.0 | 0.00 | 0.00 | 0.00 | 85 | 1008.8 |
| 20260506041024 | 76 | 238 | 1.7 | 7.0 | 0.00 | 0.00 | 0.00 | 85 | 1008.8 |
| 20260506040503 | 76 | 243 | 1.7 | 6.1 | 0.00 | 0.00 | 0.00 | 85 | 1008.8 |
| 20260506040024 | 76 | 231 | 0.9 | 5.2 | 0.00 | 0.00 | 0.00 | 85 | 1008.7 |
| 20260506035503 | 76 | 277 | 0.9 | 7.0 | 0.00 | 0.00 | 0.00 | 85 | 1008.7 |
| 20260506035003 | 76 | 283 | 0.9 | 7.0 | 0.00 | 0.00 | 0.00 | 85 | 1008.7 |
| 20260506034503 | 76 | 267 | 1.7 | 8.7 | 0.00 | 0.00 | 0.00 | 85 | 1008.7 |
| 20260506034003 | 76 | 253 | 1.7 | 8.7 | 0.00 | 0.00 | 0.00 | 85 | 1008.7 |
| 20260506033503 | 76 | 259 | 1.7 | 7.8 | 0.00 | 0.00 | 0.00 | 85 | 1008.5 |
| 20260506033024 | 76 | 249 | 1.7 | 7.8 | 0.00 | 0.00 | 0.00 | 85 | 1008.5 |
| 20260506032503 | 76 | 262 | 1.7 | 7.8 | 0.00 | 0.00 | 0.00 | 85 | 1008.5 |
| 20260506032003 | 76 | 295 | 1.7 | 7.8 | 0.00 | 0.00 | 0.00 | 85 | 1008.4 |
| 20260506031503 | 77 | 230 | 0.9 | 7.0 | 0.00 | 0.00 | 0.00 | 84 | 1008.3 |
| 20260506031003 | 77 | 237 | 1.7 | 6.1 | 0.00 | 0.00 | 0.00 | 84 | 1008.4 |
| 20260506030503 | 77 | 245 | 1.7 | 6.1 | 0.00 | 0.00 | 0.00 | 84 | 1008.5 |
| 20260506030003 | 77 | 252 | 1.7 | 4.3 | 0.00 | 0.00 | 0.00 | 84 | 1008.6 |
| 20260506025503 | 77 | 244 | 0.9 | 4.3 | 0.00 | 0.00 | 0.00 | 84 | 1008.6 |
| 20260506025003 | 77 | 241 | 1.7 | 6.1 | 0.00 | 0.00 | 0.00 | 84 | 1008.4 |
| 20260506024503 | 77 | 201 | 1.7 | 6.1 | 0.00 | 0.00 | 0.00 | 84 | 1008.3 |
| 20260506024003 | 77 | 212 | 1.7 | 6.1 | 0.00 | 0.00 | 0.00 | 84 | 1008.2 |
| 20260506023503 | 77 | 231 | 0.9 | 6.1 | 0.00 | 0.00 | 0.00 | 84 | 1008.1 |
| 20260506023003 | 77 | 234 | 0.9 | 6.1 | 0.00 | 0.00 | 0.00 | 84 | 1008.1 |
| 20260506022503 | 77 | 269 | 0.9 | 4.3 | 0.00 | 0.00 | 0.00 | 84 | 1007.8 |
| 20260506022003 | 77 | 279 | 0.9 | 4.3 | 0.00 | 0.00 | 0.00 | 84 | 1007.7 |
| 20260506021503 | 77 | 45 | 0.9 | 5.2 | 0.00 | 0.00 | 0.00 | 84 | 1007.6 |
| 20260506021003 | 77 | 108 | 1.7 | 7.8 | 0.00 | 0.00 | 0.00 | 84 | 1007.4 |
| 20260506020503 | 77 | 116 | 2.6 | 9.6 | 0.00 | 0.00 | 0.00 | 84 | 1007.3 |
| 20260506020003 | 77 | 110 | 2.6 | 9.6 | 0.00 | 0.00 | 0.00 | 84 | 1007.2 |
| 20260506015503 | 77 | 112 | 2.6 | 7.0 | 0.00 | 0.00 | 0.00 | 83 | 1007.1 |
| 20260506015003 | 77 | 170 | 1.7 | 6.1 | 0.00 | 0.00 | 0.00 | 83 | 1007.1 |
| 20260506014503 | 77 | 171 | 1.7 | 6.1 | 0.00 | 0.00 | 0.00 | 83 | 1007.1 |
| 20260506014003 | 78 | 116 | 1.7 | 5.2 | 0.00 | 0.00 | 0.00 | 83 | 1007.1 |
| 20260506013503 | 78 | 114 | 1.7 | 3.5 | 0.00 | 0.00 | 0.00 | 83 | 1007.1 |
| 20260506013003 | 78 | 121 | 1.7 | 6.1 | 0.00 | 0.00 | 0.00 | 83 | 1007.0 |
| 20260506012503 | 78 | 151 | 1.7 | 6.1 | 0.00 | 0.00 | 0.00 | 82 | 1006.9 |
| 20260506012003 | 78 | 212 | 1.7 | 6.1 | 0.00 | 0.00 | 0.00 | 82 | 1006.8 |
| 20260506011503 | 78 | 114 | 1.7 | 7.0 | 0.00 | 0.00 | 0.00 | 82 | 1006.7 |
| 20260506011024 | 78 | 110 | 2.6 | 7.0 | 0.00 | 0.00 | 0.00 | 82 | 1006.5 |
| 20260506010524 | 78 | 95 | 1.7 | 6.1 | 0.00 | 0.00 | 0.00 | 82 | 1006.5 |
| 20260506010003 | 78 | 83 | 0.9 | 3.5 | 0.00 | 0.00 | 0.00 | 81 | 1006.4 |
| 20260506005503 | 79 | 117 | 0.9 | 3.5 | 0.00 | 0.00 | 0.00 | 81 | 1006.4 |
| 20260506005003 | 79 | 129 | 0.0 | 3.5 | 0.00 | 0.00 | 0.00 | 81 | 1006.5 |
| 20260506004503 | 79 | 242 | 0.0 | 4.3 | 0.00 | 0.00 | 0.00 | 80 | 1006.3 |
| 20260506004003 | 79 | 200 | 0.9 | 5.2 | 0.00 | 0.00 | 0.00 | 80 | 1006.3 |
| 20260506003503 | 79 | 252 | 0.9 | 7.0 | 0.00 | 0.00 | 0.00 | 80 | 1006.3 |
| 20260506003003 | 80 | 291 | 0.9 | 7.0 | 0.00 | 0.00 | 0.00 | 79 | 1006.3 |
| 20260506002503 | 80 | 192 | 1.7 | 7.0 | 0.00 | 0.00 | 0.00 | 79 | 1006.2 |
| 20260506002003 | 80 | 118 | 2.6 | 7.0 | 0.00 | 0.00 | 0.00 | 79 | 1006.1 |
| 20260506001503 | 80 | 122 | 2.6 | 6.1 | 0.00 | 0.00 | 0.00 | 78 | 1006.0 |
| 20260506001024 | 80 | 131 | 1.7 | 4.3 | 0.00 | 0.00 | 0.00 | 78 | 1006.0 |
| 20260506000503 | 81 | 118 | 0.9 | 6.1 | 0.00 | 0.00 | 0.00 | 77 | 1006.0 |
| 20260506000003 | 81 | 130 | 1.7 | 6.1 | 0.00 | 0.00 | 0.00 | 77 | 1006.0 |
| 20260505235503 | 81 | 174 | 1.7 | 5.2 | 0.00 | 0.00 | 0.00 | 77 | 1006.1 |
| 20260505235003 | 81 | 218 | 1.7 | 9.6 | 0.00 | 0.00 | 0.00 | 76 | 1006.1 |
| 20260505234503 | 82 | 200 | 1.7 | 9.6 | 0.00 | 0.00 | 0.00 | 76 | 1006.1 |
| 20260505234003 | 81 | 136 | 1.7 | 7.0 | 0.00 | 0.00 | 0.00 | 76 | 1006.1 |
| 20260505233503 | 81 | 121 | 1.7 | 7.0 | 0.00 | 0.00 | 0.00 | 75 | 1006.0 |
| 20260505233024 | 82 | 114 | 1.7 | 7.0 | 0.00 | 0.00 | 0.00 | 75 | 1006.1 |
| 20260505232524 | 82 | 136 | 0.9 | 7.0 | 0.00 | 0.00 | 0.00 | 75 | 1006.1 |
| 20260505232003 | 82 | 214 | 0.9 | 7.0 | 0.00 | 0.00 | 0.00 | 75 | 1006.1 |
| 20260505231503 | 82 | 262 | 1.7 | 7.0 | 0.00 | 0.00 | 0.00 | 74 | 1006.1 |
| 20260505231004 | 82 | 220 | 2.6 | 7.0 | 0.00 | 0.00 | 0.00 | 74 | 1006.1 |
| 20260505230503 | 82 | 130 | 1.7 | 8.7 | 0.00 | 0.00 | 0.00 | 74 | 1006.1 |
| 20260505230003 | 82 | 195 | 1.7 | 8.7 | 0.00 | 0.00 | 0.00 | 73 | 1006.2 |
| 20260505225504 | 83 | 186 | 1.7 | 7.8 | 0.00 | 0.00 | 0.00 | 72 | 1006.1 |
| 20260505225003 | 83 | 98 | 1.7 | 9.6 | 0.00 | 0.00 | 0.00 | 74 | 1006.2 |
| 20260505224503 | 82 | 124 | 1.7 | 9.6 | 0.00 | 0.00 | 0.00 | 74 | 1006.2 |
| 20260505224003 | 82 | 168 | 1.7 | 5.2 | 0.00 | 0.00 | 0.00 | 75 | 1006.2 |
| 20260505223503 | 82 | 247 | 2.6 | 9.6 | 0.00 | 0.00 | 0.00 | 75 | 1006.2 |
| 20260505223003 | 82 | 257 | 2.6 | 9.6 | 0.00 | 0.00 | 0.00 | 74 | 1006.2 |
| 20260505222504 | 82 | 250 | 2.6 | 7.8 | 0.00 | 0.00 | 0.00 | 74 | 1006.2 |
| 20260505222003 | 82 | 246 | 2.6 | 7.8 | 0.00 | 0.00 | 0.00 | 73 | 1006.3 |
| 20260505221503 | 82 | 242 | 2.6 | 8.7 | 0.00 | 0.00 | 0.00 | 73 | 1006.2 |
| 20260505221025 | 83 | 249 | 4.3 | 11.3 | 0.00 | 0.00 | 0.00 | 73 | 1006.2 |
| 20260505220524 | 83 | 246 | 4.3 | 11.3 | 0.00 | 0.00 | 0.00 | 71 | 1006.1 |
| 20260505220003 | 83 | 246 | 3.5 | 16.5 | 0.00 | 0.00 | 0.00 | 71 | 1006.2 |
| 20260505215524 | 83 | 251 | 4.3 | 16.5 | 0.00 | 0.00 | 0.00 | 71 | 1006.3 |
| 20260505215003 | 83 | 250 | 4.3 | 10.4 | 0.00 | 0.00 | 0.00 | 71 | 1006.3 |
| 20260505214524 | 83 | 255 | 4.3 | 10.4 | 0.00 | 0.00 | 0.00 | 71 | 1006.2 |
| 20260505214003 | 84 | 255 | 3.5 | 13.0 | 0.00 | 0.00 | 0.00 | 71 | 1006.2 |
| 20260505213503 | 84 | 239 | 4.3 | 13.0 | 0.00 | 0.00 | 0.00 | 70 | 1006.2 |
| 20260505213003 | 84 | 249 | 4.3 | 12.2 | 0.00 | 0.00 | 0.00 | 69 | 1006.3 |
| 20260505212503 | 84 | 256 | 4.3 | 12.2 | 0.00 | 0.00 | 0.00 | 70 | 1006.2 |
| 20260505212024 | 84 | 238 | 4.3 | 9.6 | 0.00 | 0.00 | 0.00 | 70 | 1006.1 |
| 20260505211524 | 83 | 233 | 4.3 | 9.6 | 0.00 | 0.00 | 0.00 | 72 | 1006.2 |
| 20260505211003 | 84 | 253 | 5.2 | 11.3 | 0.00 | 0.00 | 0.00 | 69 | 1006.4 |
| 20260505210503 | 85 | 251 | 6.1 | 13.0 | 0.00 | 0.00 | 0.00 | 69 | 1006.4 |
| 20260505210003 | 84 | 248 | 6.1 | 13.9 | 0.00 | 0.00 | 0.00 | 71 | 1006.4 |
| 20260505205524 | 84 | 250 | 5.2 | 13.9 | 0.00 | 0.00 | 0.00 | 70 | 1006.6 |
| 20260505205003 | 84 | 253 | 5.2 | 11.3 | 0.00 | 0.00 | 0.00 | 73 | 1006.7 |
| 20260505204503 | 84 | 246 | 5.2 | 13.9 | 0.00 | 0.00 | 0.00 | 71 | 1006.7 |
| 20260505204003 | 84 | 243 | 5.2 | 13.9 | 0.00 | 0.00 | 0.00 | 70 | 1006.8 |
| 20260505203503 | 83 | 247 | 6.1 | 13.0 | 0.00 | 0.00 | 0.00 | 70 | 1006.8 |
| 20260505203003 | 83 | 251 | 7.8 | 15.6 | 0.00 | 0.00 | 0.00 | 70 | 1006.9 |
| 20260505202503 | 83 | 252 | 6.1 | 15.6 | 0.00 | 0.00 | 0.00 | 70 | 1007.1 |
| 20260505202003 | 83 | 245 | 4.3 | 13.0 | 0.00 | 0.00 | 0.00 | 70 | 1006.9 |
| 20260505201503 | 83 | 251 | 5.2 | 13.9 | 0.00 | 0.00 | 0.00 | 71 | 1007.1 |
| 20260505201003 | 82 | 256 | 7.0 | 13.9 | 0.00 | 0.00 | 0.00 | 72 | 1007.2 |
| 20260505200524 | 83 | 257 | 5.2 | 13.9 | 0.00 | 0.00 | 0.00 | 71 | 1007.3 |
| 20260505200024 | 83 | 249 | 5.2 | 10.4 | 0.00 | 0.00 | 0.00 | 73 | 1007.3 |
| 20260505195503 | 82 | 248 | 5.2 | 10.4 | 0.00 | 0.00 | 0.00 | 73 | 1007.2 |
| 20260505195003 | 82 | 252 | 4.3 | 9.6 | 0.00 | 0.00 | 0.00 | 73 | 1007.3 |
| 20260505194503 | 82 | 254 | 4.3 | 9.6 | 0.00 | 0.00 | 0.00 | 74 | 1007.4 |
| 20260505194003 | 82 | 250 | 3.5 | 8.7 | 0.00 | 0.00 | 0.00 | 74 | 1007.5 |
| 20260505193524 | 82 | 250 | 3.5 | 13.0 | 0.00 | 0.00 | 0.00 | 75 | 1007.7 |
| 20260505193024 | 82 | 249 | 4.3 | 13.0 | 0.00 | 0.00 | 0.00 | 74 | 1007.7 |
| 20260505192503 | 82 | 248 | 4.3 | 12.2 | 0.00 | 0.00 | 0.00 | 74 | 1007.6 |
| 20260505192003 | 82 | 249 | 3.5 | 9.6 | 0.00 | 0.00 | 0.00 | 74 | 1007.6 |
| 20260505191503 | 81 | 239 | 4.3 | 8.7 | 0.00 | 0.00 | 0.00 | 75 | 1007.7 |
| 20260505191003 | 82 | 247 | 6.1 | 13.9 | 0.00 | 0.00 | 0.00 | 75 | 1007.8 |
| 20260505190503 | 81 | 252 | 7.0 | 13.9 | 0.00 | 0.00 | 0.00 | 73 | 1007.7 |
| 20260505190024 | 81 | 250 | 7.0 | 18.2 | 0.00 | 0.00 | 0.00 | 74 | 1007.6 |
| 20260505185503 | 81 | 249 | 7.8 | 18.2 | 0.00 | 0.00 | 0.00 | 73 | 1007.8 |
| 20260505185003 | 82 | 248 | 6.1 | 14.8 | 0.00 | 0.00 | 0.00 | 73 | 1007.7 |
| 20260505184503 | 82 | 254 | 7.0 | 16.5 | 0.00 | 0.00 | 0.00 | 74 | 1007.7 |
| 20260505184003 | 82 | 255 | 7.0 | 16.5 | 0.00 | 0.00 | 0.00 | 74 | 1007.8 |
| 20260505183524 | 81 | 252 | 6.1 | 13.0 | 0.00 | 0.00 | 0.00 | 75 | 1008.0 |
| 20260505183024 | 81 | 250 | 6.1 | 13.0 | 0.00 | 0.00 | 0.00 | 75 | 1008.1 |
| 20260505182503 | 80 | 245 | 6.1 | 13.0 | 0.00 | 0.00 | 0.00 | 77 | 1008.0 |
| 20260505182003 | 79 | 248 | 5.2 | 12.2 | 0.00 | 0.00 | 0.00 | 77 | 1008.2 |
| 20260505181503 | 80 | 254 | 5.2 | 11.3 | 0.00 | 0.00 | 0.00 | 77 | 1008.2 |
| 20260505181003 | 80 | 249 | 5.2 | 11.3 | 0.00 | 0.00 | 0.00 | 77 | 1008.2 |
| 20260505180503 | 80 | 249 | 5.2 | 12.2 | 0.00 | 0.00 | 0.00 | 77 | 1008.2 |
| 20260505180024 | 79 | 254 | 5.2 | 12.2 | 0.00 | 0.00 | 0.00 | 77 | 1008.3 |
| 20260505175503 | 79 | 251 | 6.1 | 11.3 | 0.00 | 0.00 | 0.00 | 78 | 1008.4 |
| 20260505175003 | 79 | 250 | 6.1 | 11.3 | 0.00 | 0.00 | 0.00 | 78 | 1008.5 |
| 20260505174503 | 79 | 252 | 5.2 | 11.3 | 0.00 | 0.00 | 0.00 | 78 | 1008.5 |
| 20260505174024 | 78 | 249 | 5.2 | 11.3 | 0.00 | 0.00 | 0.00 | 79 | 1008.5 |
| 20260505173503 | 78 | 245 | 4.3 | 12.2 | 0.00 | 0.00 | 0.00 | 80 | 1008.5 |
| 20260505173003 | 78 | 251 | 5.2 | 13.9 | 0.00 | 0.00 | 0.00 | 79 | 1008.6 |
| 20260505172503 | 78 | 242 | 4.3 | 13.9 | 0.00 | 0.00 | 0.00 | 80 | 1008.5 |
| 20260505172003 | 78 | 228 | 4.3 | 13.9 | 0.00 | 0.00 | 0.00 | 80 | 1008.5 |
| 20260505171503 | 77 | 250 | 5.2 | 13.0 | 0.00 | 0.00 | 0.00 | 81 | 1008.5 |
| 20260505171003 | 76 | 255 | 6.1 | 13.0 | 0.00 | 0.00 | 0.00 | 82 | 1008.7 |
| 20260505170503 | 76 | 251 | 5.2 | 13.0 | 0.00 | 0.00 | 0.00 | 82 | 1008.7 |
| 20260505170024 | 76 | 250 | 5.2 | 10.4 | 0.00 | 0.00 | 0.00 | 81 | 1008.8 |
| 20260505165524 | 76 | 253 | 4.3 | 10.4 | 0.00 | 0.00 | 0.00 | 81 | 1009.0 |
| 20260505165003 | 76 | 247 | 4.3 | 10.4 | 0.00 | 0.00 | 0.00 | 82 | 1008.8 |
| 20260505164503 | 76 | 245 | 3.5 | 9.6 | 0.00 | 0.00 | 0.00 | 82 | 1008.8 |
| 20260505164024 | 76 | 244 | 3.5 | 9.6 | 0.00 | 0.00 | 0.00 | 82 | 1008.7 |
| 20260505163524 | 76 | 241 | 2.6 | 8.7 | 0.00 | 0.00 | 0.00 | 83 | 1008.8 |
| 20260505163003 | 75 | 246 | 3.5 | 11.3 | 0.00 | 0.00 | 0.00 | 83 | 1008.8 |
| 20260505162524 | 75 | 255 | 3.5 | 11.3 | 0.00 | 0.00 | 0.00 | 83 | 1008.9 |
| 20260505162024 | 75 | 261 | 1.7 | 7.0 | 0.00 | 0.00 | 0.00 | 83 | 1008.9 |
| 20260505161503 | 75 | 255 | 2.6 | 7.8 | 0.00 | 0.00 | 0.00 | 84 | 1009.1 |
| 20260505161003 | 74 | 256 | 3.5 | 7.8 | 0.00 | 0.00 | 0.00 | 83 | 1009.1 |
| 20260505160524 | 74 | 257 | 2.6 | 7.8 | 0.00 | 0.00 | 0.00 | 84 | 1008.9 |
| 20260505153003 | 73 | 252 | 2.6 | 7.8 | 0.00 | 0.00 | 0.00 | 85 | 1008.9 |
| 20260505152503 | 73 | 262 | 0.9 | 5.2 | 0.00 | 0.00 | 0.00 | 85 | 1008.8 |
| 20260505152003 | 73 | 267 | 0.9 | 7.8 | 0.00 | 0.00 | 0.00 | 86 | 1008.7 |
| 20260505151503 | 72 | 260 | 1.7 | 7.8 | 0.00 | 0.00 | 0.00 | 86 | 1008.8 |
| 20260505151003 | 72 | 255 | 2.6 | 7.0 | 0.00 | 0.00 | 0.00 | 87 | 1008.8 |
| 20260505150503 | 72 | 254 | 3.5 | 7.0 | 0.00 | 0.00 | 0.00 | 87 | 1008.9 |
| 20260505140503 | 71 | 250 | 3.5 | 8.7 | 0.00 | 0.00 | 0.00 | 87 | 1008.8 |
| 20260505125003 | 69 | 246 | 0.9 | 4.3 | 0.00 | 0.00 | 0.00 | 87 | 1008.6 |
| 20260505124524 | 69 | 241 | 0.9 | 9.6 | 0.00 | 0.00 | 0.00 | 88 | 1008.5 |
| 20260505124003 | 69 | 232 | 1.7 | 9.6 | 0.00 | 0.00 | 0.00 | 88 | 1008.5 |
| 20260505123503 | 69 | 238 | 1.7 | 7.8 | 0.00 | 0.00 | 0.00 | 88 | 1008.4 |
| 20260505123003 | 69 | 243 | 0.9 | 7.8 | 0.00 | 0.00 | 0.00 | 87 | 1008.2 |
| 20260505122503 | 69 | 229 | 0.9 | 6.1 | 0.00 | 0.00 | 0.00 | 87 | 1008.2 |
| 20260505122003 | 69 | 249 | 1.7 | 7.8 | 0.00 | 0.00 | 0.00 | 87 | 1008.1 |
| 20260505121503 | 69 | 248 | 1.7 | 7.8 | 0.00 | 0.00 | 0.00 | 87 | 1008.0 |
| 20260505121003 | 69 | 245 | 2.6 | 8.7 | 0.00 | 0.00 | 0.00 | 87 | 1008.2 |
| 20260505120503 | 69 | 255 | 2.6 | 8.7 | 0.00 | 0.00 | 0.00 | 87 | 1008.2 |
| 20260505120004 | 69 | 264 | 2.6 | 7.0 | 0.00 | 0.00 | 0.00 | 87 | 1008.2 |
| 20260505115503 | 69 | 252 | 2.6 | 7.0 | 0.00 | 0.00 | 0.00 | 87 | 1008.1 |
| 20260505115003 | 69 | 245 | 2.6 | 7.0 | 0.00 | 0.00 | 0.00 | 87 | 1008.1 |
| 20260505114503 | 69 | 247 | 2.6 | 7.8 | 0.00 | 0.00 | 0.00 | 87 | 1008.0 |
| 20260505114003 | 69 | 248 | 1.7 | 7.8 | 0.00 | 0.00 | 0.00 | 87 | 1008.1 |
| 20260505113503 | 69 | 249 | 1.7 | 7.0 | 0.00 | 0.00 | 0.00 | 87 | 1008.0 |
| 20260505113003 | 69 | 250 | 1.7 | 7.0 | 0.00 | 0.00 | 0.00 | 87 | 1007.9 |
| 20260505112503 | 69 | 253 | 1.7 | 7.8 | 0.00 | 0.00 | 0.00 | 87 | 1008.0 |
| 20260505112003 | 68 | 251 | 1.7 | 7.8 | 0.00 | 0.00 | 0.00 | 87 | 1007.9 |
| 20260505111503 | 68 | 249 | 1.7 | 7.0 | 0.00 | 0.00 | 0.00 | 87 | 1008.0 |
| 20260505111003 | 68 | 254 | 1.7 | 7.8 | 0.00 | 0.00 | 0.00 | 87 | 1008.0 |